Surface/Precipitation History
03/01/2015 09:33  to  3/2/2015 09:33
Change End Date:
Date/Time
(MST)
Sf
Temp Chem Water Layer Surface Precipitation
Sf Sub Frz Factor Pct Depth IcePct Cond Salin Type Intens Accum Rate
03/02/2015 09:31 Dry 29.8F 32F - - - - - 0 mhos 0 None None - -
03/02/2015 09:26 Dry 29.3F 32F - - - - - 0 mhos 0 None None - -
03/02/2015 09:16 Dry 28.6F 32F - - - - - 0 mhos 7 None None - -
03/02/2015 09:16 Dry 28.4F 32F - - - - - 0 mhos 7 None None - -
03/02/2015 09:06 Dry 27.9F 32F - - - - - 0 mhos 7 None None - -
03/02/2015 09:01 Dry 27.3F 32F - - - - - 0 mhos 7 None None - -
03/02/2015 08:56 Dry 27.0F 32F - - - - - 0 mhos 7 None None - -
03/02/2015 08:46 Dry 26.6F 32F - - - - - 0 mhos 0 None None - -
03/02/2015 08:46 Dry 26.4F 32F - - - - - 0 mhos 0 None None - -
03/02/2015 08:36 Dry 25.9F 32F - - - - - 0 mhos 0 None None - -
03/02/2015 08:31 Ice Watch 25.7F 32F - 5 - - - 0 mhos 0 None None - -
03/02/2015 08:26 Ice Watch 25.5F 32F - 5 - - - 0 mhos 0 None None - -
03/02/2015 08:16 Ice Watch 25.2F 32F - 5 - - - 0 mhos 9 None None - -
03/02/2015 08:16 Ice Watch 25.2F 32F - 5 - - - 0 mhos 9 None None - -
03/02/2015 08:06 Ice Watch 24.6F 32F - 5 - - - 0 mhos 9 None None - -
Date/Time
(MST)
Sf
Temp Chem Water Layer Surface Precipitation
Sf Sub Frz Factor Pct Depth IcePct Cond Salin Type Intens Accum Rate
03/02/2015 08:00 Ice Watch 24.3F 32F - 5 - - - 0 mhos 9 None None - -
03/02/2015 07:56 Ice Watch 24.1F 33F - 5 - - - 0 mhos 9 None None - -
03/02/2015 07:46 Ice Watch 23.9F 33F - 5 - - - 0 mhos 9 None None - -
03/02/2015 07:46 Ice Watch 23.9F 33F - 5 - - - 0 mhos 9 None None - -
03/02/2015 07:36 Ice Watch 23.7F 33F - 35 - - - 0 mhos 8 None None - -
03/02/2015 07:30 Ice Watch 23.9F 33F - 40 - - - 0 mhos 9 None None - -
03/02/2015 07:26 Ice Watch 23.9F 33F - 5 - - - 0 mhos 9 None None - -
03/02/2015 07:16 Ice Watch 23.9F 33F - 5 - - - 0 mhos 9 None None - -
03/02/2015 07:16 Ice Watch 23.9F 33F - 5 - - - 0 mhos 9 None None - -
03/02/2015 07:06 Ice Watch 23.9F 33F - 45 - - - 0 mhos 8 None None - -
03/02/2015 07:01 Ice Watch 23.9F 33F - 45 - - - 0 mhos 8 None None - -
03/02/2015 06:56 Ice Watch 23.9F 33F - 45 - - - 0 mhos 9 None None - -
03/02/2015 06:46 Ice Watch 23.7F 33F - 45 - - - 0 mhos 8 None None - -
03/02/2015 06:46 Ice Watch 23.7F 33F - 45 - - - 0 mhos 8 None None - -
03/02/2015 06:36 Ice Watch 23.5F 33F - 45 - - - 0 mhos 8 None None - -
Date/Time
(MST)
Sf
Temp Chem Water Layer Surface Precipitation
Sf Sub Frz Factor Pct Depth IcePct Cond Salin Type Intens Accum Rate
03/02/2015 06:31 Ice Watch 23.5F 33F - 45 - - - 0 mhos 9 None None - -
03/02/2015 06:25 Ice Watch 23.5F 33F - 45 - - - 0 mhos 8 None None - -
03/02/2015 06:16 Ice Watch 23.4F 33F - 40 - - - 0 mhos 0 None None - -
03/02/2015 06:15 Ice Watch 23.4F 33F - 45 - - - 0 mhos 0 None None - -
03/02/2015 06:05 Ice Watch 23.2F 33F - 45 - - - 0 mhos 9 None None - -
03/02/2015 06:00 Ice Watch 23.2F 33F - 40 - - - 0 mhos 8 None None - -
03/02/2015 05:55 Ice Watch 23.0F 33F - 45 - - - 0 mhos 0 None None - -
03/02/2015 05:46 Ice Watch 22.8F 33F - 45 - - - 0 mhos 0 None None - -
03/02/2015 05:45 Ice Watch 22.6F 33F - 45 - - - 0 mhos 0 None None - -
03/02/2015 05:35 Ice Watch 22.5F 33F - 40 - - - 0 mhos 0 None None - -
03/02/2015 05:30 Ice Watch 22.3F 33F - 40 - - - 0 mhos 0 None None - -
03/02/2015 05:25 Ice Watch 22.1F 33F - 40 - - - 0 mhos 0 None None - -
03/02/2015 05:16 Ice Watch 21.7F 33F - 40 - - - 0 mhos 0 None None - -
03/02/2015 05:15 Ice Watch 21.7F 33F - 40 - - - 0 mhos 0 None None - -
03/02/2015 05:05 Ice Watch 21.4F 33F - 40 - - - 0 mhos 0 None None - -
Date/Time
(MST)
Sf
Temp Chem Water Layer Surface Precipitation
Sf Sub Frz Factor Pct Depth IcePct Cond Salin Type Intens Accum Rate
03/02/2015 05:00 Ice Watch 21.4F 33F - 40 - - - 0 mhos 0 None None - -
03/02/2015 04:55 Ice Watch 21.4F 33F - 40 - - - 0 mhos 0 None None - -
03/02/2015 04:46 Ice Watch 21.4F 33F - 40 - - - 0 mhos 0 None None - -
03/02/2015 04:45 Ice Watch 21.4F 33F - 40 - - - 0 mhos 0 None None - -
03/02/2015 04:35 Ice Watch 21.4F 33F - 40 - - - 0 mhos 0 None None - -
03/02/2015 04:31 Ice Watch 21.6F 33F - 40 - - - 0 mhos 0 None None - -
03/02/2015 04:25 Ice Watch 21.7F 33F - 40 - - - 0 mhos 0 None None - -
03/02/2015 04:16 Ice Watch 21.9F 33F - 40 - - - 0 mhos 8 None None - -
03/02/2015 04:15 Ice Watch 22.1F 33F - 40 - - - 0 mhos 8 None None - -
03/02/2015 04:05 Ice Watch 22.5F 33F - 35 - - - 0 mhos 8 None None - -
03/02/2015 04:01 Ice Watch 22.5F 33F - 35 - - - 0 mhos 8 None None - -
03/02/2015 03:55 Ice Watch 22.8F 33F - 35 - - - 0 mhos 8 None None - -
03/02/2015 03:45 Ice Watch 23.4F 33F - 35 - - - 0 mhos 9 None None - -
03/02/2015 03:35 Ice Watch 23.5F 33F - 35 - - - 0 mhos 8 None None - -
03/02/2015 03:25 Ice Watch 23.9F 33F - 35 - - - 0 mhos 8 None None - -
Date/Time
(MST)
Sf
Temp Chem Water Layer Surface Precipitation
Sf Sub Frz Factor Pct Depth IcePct Cond Salin Type Intens Accum Rate
03/02/2015 03:14 Ice Watch 23.7F 33F - 30 - - - 0 mhos 8 None None - -
03/02/2015 03:04 Ice Watch 23.5F 33F - 30 - - - 0 mhos 8 None None - -
03/02/2015 02:54 Ice Watch 23.5F 33F - 35 - - - 0 mhos 8 None None - -
03/02/2015 02:44 Ice Watch 23.5F 33F - 5 - - - 0 mhos 9 None None - -
03/02/2015 02:34 Ice Watch 23.9F 33F - 5 - - - 0 mhos 9 None None - -
03/02/2015 02:24 Ice Watch 24.4F 33F - 5 - - - 0 mhos 9 None None - -
03/02/2015 02:16 Ice Watch 24.6F 33F - 30 - - - 0 mhos 8 None None - -
03/02/2015 02:14 Ice Watch 24.6F 33F - 30 - - - 0 mhos 9 None None - -
03/02/2015 02:04 Ice Watch 24.4F 33F - 5 - - - 0 mhos 9 None None - -
03/02/2015 02:01 Ice Watch 24.4F 33F - 5 - - - 0 mhos 9 None None - -
03/02/2015 01:54 Ice Watch 24.4F 33F - 5 - - - 0 mhos 9 None None - -
03/02/2015 01:47 Ice Watch 24.4F 33F - 5 - - - 0 mhos 9 None None - -
03/02/2015 01:44 Ice Watch 24.4F 33F - 5 - - - 0 mhos 9 None None - -
03/02/2015 01:34 Ice Watch 24.6F 33F - 5 - - - 0 mhos 9 None None - -
03/02/2015 01:30 Ice Watch 24.6F 33F - 5 - - - 0 mhos 9 None None - -
Date/Time
(MST)
Sf
Temp Chem Water Layer Surface Precipitation
Sf Sub Frz Factor Pct Depth IcePct Cond Salin Type Intens Accum Rate
03/02/2015 01:24 Ice Watch 24.6F 33F - 5 - - - 0 mhos 9 None None - -
03/02/2015 01:16 Ice Watch 24.6F 33F - 5 - - - 0 mhos 9 None None - -
03/02/2015 01:14 Ice Watch 24.6F 33F - 5 - - - 0 mhos 9 None None - -
03/02/2015 01:04 Ice Watch 24.6F 33F - 5 - - - 0 mhos 9 None None - -
03/02/2015 01:00 Ice Watch 24.6F 33F - 5 - - - 0 mhos 9 None None - -
03/02/2015 00:54 Ice Watch 24.8F 33F - 5 - - - 0 mhos 9 None None - -
03/02/2015 00:47 Ice Watch 24.8F 33F - 5 - - - 0 mhos 9 None None - -
03/02/2015 00:44 Ice Watch 24.8F 33F - 5 - - - 0 mhos 9 None None - -
03/02/2015 00:34 Ice Watch 25.0F 33F - 5 - - - 0 mhos 10 None None - -
03/02/2015 00:31 Ice Watch 25.2F 33F - 5 - - - 0 mhos 9 None None - -
03/02/2015 00:24 Ice Watch 25.2F 33F - 5 - - - 0 mhos 9 None None - -
03/02/2015 00:16 Ice Watch 25.3F 33F - 5 - - - 0 mhos 9 None None - -
03/02/2015 00:14 Ice Watch 25.3F 33F - 5 - - - 0 mhos 9 None None - -
03/02/2015 00:03 Ice Watch 25.5F 33F - 5 - - - 0 mhos 9 None None - -
03/02/2015 00:00 Ice Watch 25.3F 33F - 5 - - - 0 mhos 9 None None - -
Date/Time
(MST)
Sf
Temp Chem Water Layer Surface Precipitation
Sf Sub Frz Factor Pct Depth IcePct Cond Salin Type Intens Accum Rate
03/01/2015 23:53 Ice Watch 25.3F 33F - 5 - - - 0 mhos 9 None None - -
03/01/2015 23:47 Ice Watch 25.3F 33F - 30 - - - 0 mhos 8 None None - -
03/01/2015 23:43 Ice Watch 25.2F 33F - 30 - - - 0 mhos 8 None None - -
03/01/2015 23:33 Ice Watch 25.2F 33F - 25 - - - 0 mhos 8 None None - -
03/01/2015 23:30 Ice Watch 25.0F 33F - 25 - - - 0 mhos 8 None None - -
03/01/2015 23:23 Ice Watch 25.0F 33F - 25 - - - 0 mhos 8 None None - -
03/01/2015 23:16 Ice Watch 24.8F 33F - 25 - - - 0 mhos 8 None None - -
03/01/2015 23:13 Ice Watch 24.8F 33F - 25 - - - 0 mhos 8 None None - -
03/01/2015 23:03 Ice Watch 24.6F 33F - 5 - - - 0 mhos 9 None None - -
03/01/2015 23:00 Ice Watch 24.6F 33F - 5 - - - 0 mhos 9 None None - -
03/01/2015 22:53 Ice Watch 24.8F 33F - 5 - - - 0 mhos 8 None None - -
03/01/2015 22:46 Ice Watch 24.8F 33F - 20 - - - 0 mhos 8 None None - -
03/01/2015 22:43 Ice Watch 24.6F 33F - 5 - - - 0 mhos 8 None None - -
03/01/2015 22:33 Ice Watch 24.3F 33F - 20 - - - 0 mhos 8 None None - -
03/01/2015 22:31 Ice Watch 24.3F 33F - 20 - - - 0 mhos 8 None None - -
Date/Time
(MST)
Sf
Temp Chem Water Layer Surface Precipitation
Sf Sub Frz Factor Pct Depth IcePct Cond Salin Type Intens Accum Rate
03/01/2015 22:23 Ice Watch 24.1F 33F - 20 - - - 0 mhos 8 None None - -
03/01/2015 22:16 Ice Watch 24.1F 33F - 5 - - - 0 mhos 8 None None - -
03/01/2015 22:13 Ice Watch 24.1F 33F - 5 - - - 0 mhos 8 None None - -
03/01/2015 22:03 Ice Watch 24.4F 33F - 5 - - - 0 mhos 8 None None - -
03/01/2015 22:01 Ice Watch 24.4F 33F - 5 - - - 0 mhos 8 None None - -
03/01/2015 21:53 Ice Watch 24.6F 33F - 5 - - - 0 mhos 8 None None - -
03/01/2015 21:47 Ice Watch 24.8F 33F - 5 - - - 0 mhos 8 None None - -
03/01/2015 21:43 Ice Watch 25.2F 33F - 5 - - - 0 mhos 8 None None - -
03/01/2015 21:33 Ice Watch 25.3F 33F - 5 - - - 0 mhos 8 None None - -
03/01/2015 21:30 Ice Watch 25.3F 33F - 5 - - - 0 mhos 8 None None - -
03/01/2015 21:23 Ice Watch 25.0F 33F - 5 - - - 0 mhos 8 None None - -
03/01/2015 21:16 Ice Watch 24.6F 33F - 5 - - - 0 mhos 0 None None - -
03/01/2015 21:13 Ice Watch 24.6F 33F - 5 - - - 0 mhos 0 None None - -
03/01/2015 21:03 Ice Watch 24.8F 33F - 5 - - - 0 mhos 0 None None - -
03/01/2015 21:01 Ice Watch 24.8F 33F - 5 - - - 0 mhos 0 None None - -
Date/Time
(MST)
Sf
Temp Chem Water Layer Surface Precipitation
Sf Sub Frz Factor Pct Depth IcePct Cond Salin Type Intens Accum Rate
03/01/2015 20:52 Ice Watch 24.8F 33F - 5 - - - 0 mhos 0 None None - -
03/01/2015 20:46 Ice Watch 25.0F 33F - 5 - - - 0 mhos 0 None None - -
03/01/2015 20:42 Ice Watch 25.0F 33F - 5 - - - 0 mhos 0 None None - -
03/01/2015 20:32 Dry 25.3F 33F - - - - - 0 mhos 0 None None - -
03/01/2015 20:30 Dry 25.5F 33F - - - - - 0 mhos 0 None None - -
03/01/2015 20:22 Dry 25.7F 33F - - - - - 0 mhos 0 None None - -
03/01/2015 20:16 Dry 25.7F 33F - - - - - 0 mhos 0 None None - -
03/01/2015 20:12 Dry 25.7F 33F - - - - - 0 mhos 0 None None - -
03/01/2015 20:02 Dry 26.2F 33F - - - - - 0 mhos 0 None None - -
03/01/2015 20:01 Dry 26.2F 33F - - - - - 0 mhos 0 None None - -
03/01/2015 19:52 Dry 26.6F 33F - - - - - 0 mhos 0 None None - -
03/01/2015 19:46 Dry 26.8F 33F - - - - - 0 mhos 0 None None - -
03/01/2015 19:42 Dry 26.8F 33F - - - - - 0 mhos 0 None None - -
03/01/2015 19:32 Dry 27.1F 33F - - - - - 0 mhos 0 None None - -
03/01/2015 19:30 Dry 27.1F 33F - - - - - 0 mhos 0 None None - -
Date/Time
(MST)
Sf
Temp Chem Water Layer Surface Precipitation
Sf Sub Frz Factor Pct Depth IcePct Cond Salin Type Intens Accum Rate
03/01/2015 19:22 Dry 27.7F 33F - - - - - 0 mhos 0 None None - -
03/01/2015 19:16 Dry 28.0F 33F - - - - - 0 mhos 0 None None - -
03/01/2015 19:12 Dry 28.4F 33F - - - - - 0 mhos 0 None None - -
03/01/2015 19:02 Dry 28.9F 33F - - - - - 0 mhos 0 None None - -
03/01/2015 19:00 Dry 28.9F 33F - - - - - 0 mhos 0 None None - -
03/01/2015 18:52 Dry 29.3F 33F - - - - - 0 mhos 0 None None - -
03/01/2015 18:46 Dry 29.7F 33F - - - - - 0 mhos 0 None None - -
03/01/2015 18:42 Dry 29.7F 33F - - - - - 0 mhos 0 None None - -
03/01/2015 18:32 Dry 30.2F 33F - - - - - 0 mhos 0 None None - -
03/01/2015 18:31 Dry 30.2F 33F - - - - - 0 mhos 0 None None - -
03/01/2015 18:22 Dry 30.7F 33F - - - - - 0 mhos 0 None None - -
03/01/2015 18:16 Dry 31.1F 33F - - - - - 0 mhos 0 None None - -
03/01/2015 18:12 Dry 31.3F 33F - - - - - 0 mhos 0 None None - -
03/01/2015 18:02 Dry 31.8F 32F - - - - - 0 mhos 0 None None - -
03/01/2015 18:01 Dry 31.8F 33F - - - - - 0 mhos 0 None None - -
Date/Time
(MST)
Sf
Temp Chem Water Layer Surface Precipitation
Sf Sub Frz Factor Pct Depth IcePct Cond Salin Type Intens Accum Rate
03/01/2015 17:52 Dry 32.5F 32F - - - - - 0 mhos 0 None None - -
03/01/2015 17:46 Dry 32.9F 32F - - - - - 0 mhos 0 None None - -
03/01/2015 17:41 Dry 33.3F 32F - - - - - 0 mhos 0 None None - -
03/01/2015 17:31 Dry 34.0F 32F - - - - - 0 mhos 0 None None - -
03/01/2015 17:31 Dry 34.2F 32F - - - - - 0 mhos 0 None None - -
03/01/2015 17:21 Dry 34.9F 32F - - - - - 0 mhos 0 None None - -
03/01/2015 17:16 Dry 35.4F 32F - - - - - 0 mhos 0 None None - -
03/01/2015 17:11 Dry 35.8F 32F - - - - - 0 mhos 0 None None - -
03/01/2015 17:01 Dry 36.7F 32F - - - - - 0 mhos 0 None None - -
03/01/2015 17:00 Dry 36.7F 32F - - - - - 0 mhos 0 None None - -
03/01/2015 16:51 Dry 37.4F 32F - - - - - 0 mhos 0 None None - -
03/01/2015 16:46 Dry 37.4F 32F - - - - - 0 mhos 0 None None - -
03/01/2015 16:41 Dry 37.6F 32F - - - - - 0 mhos 0 None None - -
03/01/2015 16:31 Dry 38.7F 32F - - - - - 0 mhos 0 None None - -
03/01/2015 16:31 Dry 38.7F 32F - - - - - 0 mhos 0 None None - -
Date/Time
(MST)
Sf
Temp Chem Water Layer Surface Precipitation
Sf Sub Frz Factor Pct Depth IcePct Cond Salin Type Intens Accum Rate
03/01/2015 16:21 Dry 39.2F 32F - - - - - 0 mhos 0 None None - -
03/01/2015 16:16 Dry 39.9F 32F - - - - - 0 mhos 0 None None - -
03/01/2015 16:11 Dry 40.3F 32F - - - - - 0 mhos 0 None None - -
03/01/2015 16:01 Dry 40.8F 32F - - - - - 0 mhos 0 None None - -
03/01/2015 16:00 Dry 40.8F 32F - - - - - 0 mhos 0 None None - -
03/01/2015 15:51 Dry 42.1F 32F - - - - - 0 mhos 0 None None - -
03/01/2015 15:46 Dry 42.3F 32F - - - - - 0 mhos 0 None None - -
03/01/2015 15:41 Dry 42.1F 32F - - - - - 0 mhos 0 None None - -
03/01/2015 15:31 Dry 41.7F 32F - - - - - 0 mhos 0 None None - -
03/01/2015 15:31 Dry 41.7F 32F - - - - - 0 mhos 0 None None - -
03/01/2015 15:21 Dry 42.1F 32F - - - - - 0 mhos 0 None None - -
03/01/2015 15:16 Dry 41.9F 32F - - - - - 0 mhos 0 None None - -
03/01/2015 15:11 Dry 41.5F 32F - - - - - 0 mhos 0 None None - -
03/01/2015 15:01 Dry 41.7F 32F - - - - - 0 mhos 0 None None - -
03/01/2015 15:00 Dry 41.9F 32F - - - - - 0 mhos 0 None None - -
Date/Time
(MST)
Sf
Temp Chem Water Layer Surface Precipitation
Sf Sub Frz Factor Pct Depth IcePct Cond Salin Type Intens Accum Rate
03/01/2015 14:51 Dry 43.2F 32F - - - - - 0 mhos 0 None None - -
03/01/2015 14:46 Dry 44.6F 32F - - - - - 0 mhos 0 None None - -
03/01/2015 14:41 Dry 47.3F 32F - - - - - 0 mhos 0 None None - -
03/01/2015 14:31 Dry 46.6F 32F - - - - - 0 mhos 0 None None - -
03/01/2015 14:30 Dry 46.4F 32F - - - - - 0 mhos 0 None None - -
03/01/2015 14:21 Dry 44.8F 32F - - - - - 0 mhos 0 None None - -
03/01/2015 14:16 Dry 45.0F 32F - - - - - 0 mhos 0 None None - -
03/01/2015 14:10 Dry 43.9F 32F - - - - - 0 mhos 0 None None - -
03/01/2015 14:00 Dry 44.4F 32F - - - - - 0 mhos 0 None None - -
03/01/2015 14:00 Dry 44.4F 32F - - - - - 0 mhos 0 None None - -
03/01/2015 13:50 Dry 46.0F 32F - - - - - 0 mhos 0 None None - -
03/01/2015 13:46 Dry 45.5F 32F - - - - - 0 mhos 0 None None - -
03/01/2015 13:40 Dry 44.6F 32F - - - - - 0 mhos 0 None None - -
03/01/2015 13:30 Dry 44.1F 32F - - - - - 0 mhos 0 None None - -
03/01/2015 13:30 Dry 44.2F 32F - - - - - 0 mhos 0 None None - -
Date/Time
(MST)
Sf
Temp Chem Water Layer Surface Precipitation
Sf Sub Frz Factor Pct Depth IcePct Cond Salin Type Intens Accum Rate
03/01/2015 13:20 Dry 45.5F 32F - - - - - 0 mhos 0 None None - -
03/01/2015 13:16 Dry 46.8F 32F - - - - - 0 mhos 0 None None - -
03/01/2015 13:10 Dry 48.7F 33F - - - - - 0 mhos 0 None None - -
03/01/2015 13:01 Dry 47.1F 33F - - - - - 0 mhos 0 None None - -
03/01/2015 13:00 Dry 46.9F 33F - - - - - 0 mhos 0 None None - -
03/01/2015 12:50 Dry 44.8F 33F - - - - - 0 mhos 0 None None - -
03/01/2015 12:46 Dry 43.7F 33F - - - - - 0 mhos 0 None None - -
03/01/2015 12:40 Dry 44.1F 33F - - - - - 0 mhos 0 None None - -
03/01/2015 12:31 Dry 43.0F 33F - - - - - 0 mhos 0 None None - -
03/01/2015 12:30 Dry 43.5F 33F - - - - - 0 mhos 0 None None - -
03/01/2015 12:20 Dry 41.7F 33F - - - - - 0 mhos 0 None None - -
03/01/2015 12:16 Dry 41.5F 33F - - - - - 0 mhos 0 None None - -
03/01/2015 12:10 Dry 41.7F 33F - - - - - 0 mhos 0 None None - -
03/01/2015 12:00 Dry 39.9F 33F - - - - - 0 mhos 0 None None - -
03/01/2015 12:00 Dry 39.9F 33F - - - - - 0 mhos 0 None None - -
Date/Time
(MST)
Sf
Temp Chem Water Layer Surface Precipitation
Sf Sub Frz Factor Pct Depth IcePct Cond Salin Type Intens Accum Rate
03/01/2015 11:50 Dry 40.3F 33F - - - - - 0 mhos 0 None None - -
03/01/2015 11:46 Dry 40.8F 33F - - - - - 0 mhos 0 None None - -
03/01/2015 11:40 Dry 40.1F 33F - - - - - 0 mhos 0 None None - -
03/01/2015 11:30 Dry 39.9F 33F - - - - - 0 mhos 0 None None - -
03/01/2015 11:30 Dry 39.7F 33F - - - - - 0 mhos 0 None None - -
03/01/2015 11:20 Dry 37.8F 33F - - - - - 0 mhos 0 None None - -
03/01/2015 11:16 Dry 37.0F 33F - - - - - 0 mhos 0 None None - -
03/01/2015 11:10 Dry 37.4F 33F - - - - - 0 mhos 0 None None - -
03/01/2015 11:01 Dry 35.6F 33F - - - - - 0 mhos 0 None None - -
03/01/2015 11:00 Dry 34.9F 33F - - - - - 0 mhos 0 None None - -
03/01/2015 10:50 Dry 33.3F 33F - - - - - 0 mhos 0 None None - -
03/01/2015 10:46 Dry 32.7F 33F - - - - - 0 mhos 0 None None - -
03/01/2015 10:40 Dry 32.9F 33F - - - - - 0 mhos 0 None None - -
03/01/2015 10:31 Dry 32.7F 33F - - - - - 0 mhos 0 None None - -
03/01/2015 10:29 Dry 32.7F 33F - - - - - 0 mhos 0 None None - -
Date/Time
(MST)
Sf
Temp Chem Water Layer Surface Precipitation
Sf Sub Frz Factor Pct Depth IcePct Cond Salin Type Intens Accum Rate
03/01/2015 10:19 Dry 34.3F 33F - - - - - 0 mhos 0 None None - -
03/01/2015 10:16 Dry 34.9F 33F - - - - - 0 mhos 0 None None - -
03/01/2015 10:09 Dry 33.8F 33F - - - - - 0 mhos 0 None None - -
03/01/2015 10:01 Dry 32.0F 33F - - - - - 0 mhos 0 None None - -
03/01/2015 09:59 Dry 31.5F 33F - - - - - 0 mhos 0 None None - -
03/01/2015 09:49 Dry 27.9F 33F - - - - - 0 mhos 0 None None - -
03/01/2015 09:46 Dry 26.4F 33F - - - - - 0 mhos 0 None None - -
03/01/2015 09:39 Dry 25.7F 33F - - - - - 0 mhos 0 None None - -
Change End Date:
Copyright © 1998-2005 Surface Systems, Inc.
All Rights Reserved
Send comments about the data to:
SCAN Web ® is a registered trademark of Surface Systems, Inc.
SCAN Web Version 5.6